Year,Month,Day,Hour,Minute,Value (Times are PST for temperature in C)
2016,03,25,00,00,5.70
2016,03,25,00,01,5.70
2016,03,25,00,02,5.60
2016,03,25,00,03,5.60
2016,03,25,00,04,5.60
2016,03,25,00,05,5.60
2016,03,25,00,06,5.60
2016,03,25,00,07,5.50
2016,03,25,00,08,5.50
2016,03,25,00,09,5.40
2016,03,25,00,10,5.40
2016,03,25,00,11,5.40
2016,03,25,00,12,5.30
2016,03,25,00,13,5.30
2016,03,25,00,14,5.30
2016,03,25,00,15,5.30
2016,03,25,00,16,5.30
2016,03,25,00,17,5.30
2016,03,25,00,18,5.30
2016,03,25,00,19,5.30
2016,03,25,00,20,5.20
2016,03,25,00,21,5.20
2016,03,25,00,22,5.20
2016,03,25,00,23,5.10
2016,03,25,00,24,5.10
2016,03,25,00,25,5.10
2016,03,25,00,26,5.00
2016,03,25,00,27,4.90
2016,03,25,00,28,4.90
2016,03,25,00,29,4.90
2016,03,25,00,30,4.80
2016,03,25,00,31,4.80
2016,03,25,00,32,4.80
2016,03,25,00,33,4.70
2016,03,25,00,34,4.70
2016,03,25,00,35,4.60
2016,03,25,00,36,4.60
2016,03,25,00,37,4.60
2016,03,25,00,38,4.60
2016,03,25,00,39,4.50
2016,03,25,00,40,4.50
2016,03,25,00,41,4.50
2016,03,25,00,42,4.40
2016,03,25,00,43,4.40
2016,03,25,00,44,4.40
2016,03,25,00,45,4.40
2016,03,25,00,46,4.40
2016,03,25,00,47,4.40
2016,03,25,00,48,4.40
2016,03,25,00,49,4.30
2016,03,25,00,50,4.30
2016,03,25,00,51,4.30
2016,03,25,00,52,4.30
2016,03,25,00,53,4.40
2016,03,25,00,54,4.40
2016,03,25,00,55,4.40
2016,03,25,00,56,4.40
2016,03,25,00,57,4.50
2016,03,25,00,58,4.60
2016,03,25,00,59,4.60
2016,03,25,01,00,4.70
2016,03,25,01,01,4.80
2016,03,25,01,02,4.90
2016,03,25,01,03,4.90
2016,03,25,01,04,4.90
2016,03,25,01,05,5.00
2016,03,25,01,06,5.00
2016,03,25,01,07,5.10
2016,03,25,01,08,5.10
2016,03,25,01,09,5.10
2016,03,25,01,10,5.20
2016,03,25,01,11,5.20
2016,03,25,01,12,5.30
2016,03,25,01,13,5.30
2016,03,25,01,14,5.30
2016,03,25,01,15,5.40
2016,03,25,01,16,5.40
2016,03,25,01,17,5.40
2016,03,25,01,18,5.40
2016,03,25,01,19,5.50
2016,03,25,01,20,5.50
2016,03,25,01,21,5.60
2016,03,25,01,22,5.60
2016,03,25,01,23,5.60
2016,03,25,01,24,5.60
2016,03,25,01,25,5.60
2016,03,25,01,26,5.60
2016,03,25,01,27,5.60
2016,03,25,01,28,5.60
2016,03,25,01,29,5.60
2016,03,25,01,30,5.60
2016,03,25,01,31,5.60
2016,03,25,01,32,5.50
2016,03,25,01,33,5.50
2016,03,25,01,34,5.50
2016,03,25,01,35,5.40
2016,03,25,01,36,5.40
2016,03,25,01,37,5.40
2016,03,25,01,38,5.40
2016,03,25,01,39,5.30
2016,03,25,01,40,5.30
2016,03,25,01,41,5.30
2016,03,25,01,42,5.30
2016,03,25,01,43,5.20
2016,03,25,01,44,5.20
2016,03,25,01,45,5.20
2016,03,25,01,46,5.10
2016,03,25,01,47,5.10
2016,03,25,01,48,5.10
2016,03,25,01,49,5.00
2016,03,25,01,50,4.90
2016,03,25,01,51,4.90
2016,03,25,01,52,4.90
2016,03,25,01,53,4.80
2016,03,25,01,54,4.80
2016,03,25,01,55,4.70
2016,03,25,01,56,4.70
2016,03,25,01,57,4.70
2016,03,25,01,58,4.70
2016,03,25,01,59,4.60
2016,03,25,02,00,4.60
2016,03,25,02,01,4.60
2016,03,25,02,02,4.50
2016,03,25,02,03,4.50
2016,03,25,02,04,4.50
2016,03,25,02,05,4.40
2016,03,25,02,06,4.40
2016,03,25,02,07,4.40
2016,03,25,02,08,4.30
2016,03,25,02,09,4.30
2016,03,25,02,10,4.30
2016,03,25,02,11,4.30
2016,03,25,02,12,4.30
2016,03,25,02,13,4.20
2016,03,25,02,14,4.20
2016,03,25,02,15,4.20
2016,03,25,02,16,4.20
2016,03,25,02,17,4.20
2016,03,25,02,18,4.10
2016,03,25,02,19,4.10
2016,03,25,02,20,4.10
2016,03,25,02,21,4.10
2016,03,25,02,22,4.10
2016,03,25,02,23,4.00
2016,03,25,02,24,4.00
2016,03,25,02,25,4.00
2016,03,25,02,26,3.90
2016,03,25,02,27,3.90
2016,03,25,02,28,3.90
2016,03,25,02,29,3.90
2016,03,25,02,30,3.90
2016,03,25,02,31,3.90
2016,03,25,02,32,3.80
2016,03,25,02,33,3.80
2016,03,25,02,34,3.80
2016,03,25,02,35,3.80
2016,03,25,02,36,3.80
2016,03,25,02,37,3.80
2016,03,25,02,38,3.80
2016,03,25,02,39,3.70
2016,03,25,02,40,3.70
2016,03,25,02,41,3.70
2016,03,25,02,42,3.70
2016,03,25,02,43,3.70
2016,03,25,02,44,3.70
2016,03,25,02,45,3.70
2016,03,25,02,46,3.60
2016,03,25,02,47,3.60
2016,03,25,02,48,3.60
2016,03,25,02,49,3.60
2016,03,25,02,50,3.60
2016,03,25,02,51,3.60
2016,03,25,02,52,3.50
2016,03,25,02,53,3.50
2016,03,25,02,54,3.50
2016,03,25,02,55,3.50
2016,03,25,02,56,3.40
2016,03,25,02,57,3.40
2016,03,25,02,58,3.40
2016,03,25,02,59,3.40
2016,03,25,03,00,3.40
2016,03,25,03,01,3.40
2016,03,25,03,02,3.40
2016,03,25,03,03,3.40
2016,03,25,03,04,3.40
2016,03,25,03,05,3.40
2016,03,25,03,06,3.30
2016,03,25,03,07,3.30
2016,03,25,03,08,3.30
2016,03,25,03,09,3.30
2016,03,25,03,10,3.30
2016,03,25,03,11,3.30
2016,03,25,03,12,3.30
2016,03,25,03,13,3.30
2016,03,25,03,14,3.30
2016,03,25,03,15,3.30
2016,03,25,03,16,3.30
2016,03,25,03,17,3.30
2016,03,25,03,18,3.30
2016,03,25,03,19,3.30
2016,03,25,03,20,3.30
2016,03,25,03,21,3.30
2016,03,25,03,22,3.20
2016,03,25,03,23,3.20
2016,03,25,03,24,3.20
2016,03,25,03,25,3.20
2016,03,25,03,26,3.20
2016,03,25,03,27,3.20
2016,03,25,03,28,3.20
2016,03,25,03,29,3.20
2016,03,25,03,30,3.20
2016,03,25,03,31,3.20
2016,03,25,03,32,3.20
2016,03,25,03,33,3.20
2016,03,25,03,34,3.20
2016,03,25,03,35,3.20
2016,03,25,03,36,3.20
2016,03,25,03,37,3.20
2016,03,25,03,38,3.20
2016,03,25,03,39,3.10
2016,03,25,03,40,3.10
2016,03,25,03,41,3.10
2016,03,25,03,42,3.10
2016,03,25,03,43,3.10
2016,03,25,03,44,3.10
2016,03,25,03,45,3.10
2016,03,25,03,46,3.10
2016,03,25,03,47,3.10
2016,03,25,03,48,3.10
2016,03,25,03,49,3.10
2016,03,25,03,50,3.00
2016,03,25,03,51,3.00
2016,03,25,03,52,3.00
2016,03,25,03,53,3.00
2016,03,25,03,54,3.00
2016,03,25,03,55,3.00
2016,03,25,03,56,3.00
2016,03,25,03,57,3.00
2016,03,25,03,58,3.00
2016,03,25,03,59,3.00
2016,03,25,04,00,2.90
2016,03,25,04,01,2.90
2016,03,25,04,02,2.90
2016,03,25,04,03,2.90
2016,03,25,04,04,2.90
2016,03,25,04,05,2.90
2016,03,25,04,06,2.90
2016,03,25,04,07,2.90
2016,03,25,04,08,2.90
2016,03,25,04,09,2.90
2016,03,25,04,10,2.90
2016,03,25,04,11,3.00
2016,03,25,04,12,3.00
2016,03,25,04,13,3.00
2016,03,25,04,14,3.00
2016,03,25,04,15,3.00
2016,03,25,04,16,3.00
2016,03,25,04,17,3.00
2016,03,25,04,18,3.00
2016,03,25,04,19,3.00
2016,03,25,04,20,3.00
2016,03,25,04,21,3.00
2016,03,25,04,22,3.00
2016,03,25,04,23,2.90
2016,03,25,04,24,2.90
2016,03,25,04,25,2.90
2016,03,25,04,26,2.90
2016,03,25,04,27,2.90
2016,03,25,04,28,2.90
2016,03,25,04,29,2.90
2016,03,25,04,30,2.90
2016,03,25,04,31,2.90
2016,03,25,04,32,2.90
2016,03,25,04,33,2.90
2016,03,25,04,34,2.90
2016,03,25,04,35,2.90
2016,03,25,04,36,2.80
2016,03,25,04,37,2.80
2016,03,25,04,38,2.80
2016,03,25,04,39,2.80
2016,03,25,04,40,2.80
2016,03,25,04,41,2.80
2016,03,25,04,42,2.70
2016,03,25,04,43,2.70
2016,03,25,04,44,2.70
2016,03,25,04,45,2.70
2016,03,25,04,46,2.70
2016,03,25,04,47,2.70
2016,03,25,04,48,2.70
2016,03,25,04,49,2.60
2016,03,25,04,50,2.60
2016,03,25,04,51,2.60
2016,03,25,04,52,2.60
2016,03,25,04,53,2.60
2016,03,25,04,54,2.50
2016,03,25,04,55,2.50
2016,03,25,04,56,2.50
2016,03,25,04,57,2.40
2016,03,25,04,58,2.40
2016,03,25,04,59,2.40
2016,03,25,05,00,2.40
2016,03,25,05,01,2.40
2016,03,25,05,02,2.40
2016,03,25,05,03,2.40
2016,03,25,05,04,2.30
2016,03,25,05,05,2.30
2016,03,25,05,06,2.30
2016,03,25,05,07,2.30
2016,03,25,05,08,2.30
2016,03,25,05,09,2.30
2016,03,25,05,10,2.30
2016,03,25,05,11,2.30
2016,03,25,05,12,2.30
2016,03,25,05,13,2.30
2016,03,25,05,14,2.30
2016,03,25,05,15,2.30
2016,03,25,05,16,2.30
2016,03,25,05,17,2.30
2016,03,25,05,18,2.30
2016,03,25,05,19,2.30
2016,03,25,05,20,2.30
2016,03,25,05,21,2.30
2016,03,25,05,22,2.30
2016,03,25,05,23,2.30
2016,03,25,05,24,2.30
2016,03,25,05,25,2.30
2016,03,25,05,26,2.30
2016,03,25,05,27,2.30
2016,03,25,05,28,2.30
2016,03,25,05,29,2.20
2016,03,25,05,30,2.20
2016,03,25,05,31,2.20
2016,03,25,05,32,2.20
2016,03,25,05,33,2.20
2016,03,25,05,34,2.20
2016,03,25,05,35,2.20
2016,03,25,05,36,2.20
2016,03,25,05,37,2.20
2016,03,25,05,38,2.20
2016,03,25,05,39,2.20
2016,03,25,05,40,2.20
2016,03,25,05,41,2.20
2016,03,25,05,42,2.20
2016,03,25,05,43,2.20
2016,03,25,05,44,2.20
2016,03,25,05,45,2.20
2016,03,25,05,46,2.20
2016,03,25,05,47,2.20
2016,03,25,05,48,2.20
2016,03,25,05,49,2.20
2016,03,25,05,50,2.20
2016,03,25,05,51,2.20
2016,03,25,05,52,2.20
2016,03,25,05,53,2.20
2016,03,25,05,54,2.20
2016,03,25,05,55,2.20
2016,03,25,05,56,2.20
2016,03,25,05,57,2.30
2016,03,25,05,58,2.30
2016,03,25,05,59,2.30
2016,03,25,06,00,2.30
2016,03,25,06,01,2.30
2016,03,25,06,02,2.30
2016,03,25,06,03,2.30
2016,03,25,06,04,2.30
2016,03,25,06,05,2.30
2016,03,25,06,06,2.30
2016,03,25,06,07,2.30
2016,03,25,06,08,2.20
2016,03,25,06,09,2.20
2016,03,25,06,10,2.20
2016,03,25,06,11,2.20
2016,03,25,06,12,2.20
2016,03,25,06,13,2.20
2016,03,25,06,14,2.20
2016,03,25,06,15,2.20
2016,03,25,06,16,2.20
2016,03,25,06,17,2.20
2016,03,25,06,18,2.20
2016,03,25,06,19,2.20
2016,03,25,06,20,2.20
2016,03,25,06,21,2.20
2016,03,25,06,22,2.20
2016,03,25,06,23,2.20
2016,03,25,06,24,2.20
2016,03,25,06,25,2.20
2016,03,25,06,26,2.20
2016,03,25,06,27,2.20
2016,03,25,06,28,2.20
2016,03,25,06,29,2.20
2016,03,25,06,30,2.20
2016,03,25,06,31,2.20
2016,03,25,06,32,2.20
2016,03,25,06,33,2.20
2016,03,25,06,34,2.20
2016,03,25,06,35,2.20
2016,03,25,06,36,2.20
2016,03,25,06,37,2.20
2016,03,25,06,38,2.20
2016,03,25,06,39,2.10
2016,03,25,06,40,2.10
2016,03,25,06,41,2.10
2016,03,25,06,42,2.10
2016,03,25,06,43,2.10
2016,03,25,06,44,2.00
2016,03,25,06,45,2.00
2016,03,25,06,46,2.00
2016,03,25,06,47,1.90
2016,03,25,06,48,1.90
2016,03,25,06,49,1.90
2016,03,25,06,50,1.90
2016,03,25,06,51,1.90
2016,03,25,06,52,1.90
2016,03,25,06,53,1.80
2016,03,25,06,54,1.80
2016,03,25,06,55,1.80
2016,03,25,06,56,1.80
2016,03,25,06,57,1.80
2016,03,25,06,58,1.80
2016,03,25,06,59,1.80
2016,03,25,07,00,1.80
2016,03,25,07,01,1.80
2016,03,25,07,02,1.80
2016,03,25,07,03,1.80
2016,03,25,07,04,1.80
2016,03,25,07,05,1.80
2016,03,25,07,06,1.80
2016,03,25,07,07,1.80
2016,03,25,07,08,1.80
2016,03,25,07,09,1.80
2016,03,25,07,10,1.80
2016,03,25,07,11,1.80
2016,03,25,07,12,1.80
2016,03,25,07,13,1.80
2016,03,25,07,14,1.80
2016,03,25,07,15,1.80
2016,03,25,07,16,1.70
2016,03,25,07,17,1.70
2016,03,25,07,18,1.70
2016,03,25,07,19,1.70
2016,03,25,07,20,1.70
2016,03,25,07,21,1.70
2016,03,25,07,22,1.70
2016,03,25,07,23,1.70
2016,03,25,07,24,1.70
2016,03,25,07,25,1.70
2016,03,25,07,26,1.70
2016,03,25,07,27,1.70
2016,03,25,07,28,1.70
2016,03,25,07,29,1.70
2016,03,25,07,30,1.60
2016,03,25,07,31,1.60
2016,03,25,07,32,1.60
2016,03,25,07,33,1.60
2016,03,25,07,34,1.60
2016,03,25,07,35,1.60
2016,03,25,07,36,1.60
2016,03,25,07,37,1.50
2016,03,25,07,38,1.50
2016,03,25,07,39,1.50
2016,03,25,07,40,1.50
2016,03,25,07,41,1.50
2016,03,25,07,42,1.60
2016,03,25,07,43,1.60
2016,03,25,07,44,1.60
2016,03,25,07,45,1.60
2016,03,25,07,46,1.60
2016,03,25,07,47,1.60
2016,03,25,07,48,1.60
2016,03,25,07,49,1.60
2016,03,25,07,50,1.60
2016,03,25,07,51,1.60
2016,03,25,07,52,1.70
2016,03,25,07,53,1.70
2016,03,25,07,54,1.70
2016,03,25,07,55,1.70
2016,03,25,07,56,1.70
2016,03,25,07,57,1.70
2016,03,25,07,58,1.70
2016,03,25,07,59,1.70
2016,03,25,08,00,1.70
2016,03,25,08,01,1.70
2016,03,25,08,02,1.70
2016,03,25,08,03,1.70
2016,03,25,08,04,1.70
2016,03,25,08,05,1.70
2016,03,25,08,06,1.70
2016,03,25,08,07,1.70
2016,03,25,08,08,1.70
2016,03,25,08,09,1.70
2016,03,25,08,10,1.70
2016,03,25,08,11,1.70
2016,03,25,08,12,1.70
2016,03,25,08,13,1.60
2016,03,25,08,14,1.60
2016,03,25,08,15,1.60
2016,03,25,08,16,1.60
2016,03,25,08,17,1.60
2016,03,25,08,18,1.60
2016,03,25,08,19,1.60
2016,03,25,08,20,1.60
2016,03,25,08,21,1.60
2016,03,25,08,22,1.60
2016,03,25,08,23,1.60
2016,03,25,08,24,1.60
2016,03,25,08,25,1.60
2016,03,25,08,26,1.60
2016,03,25,08,27,1.60
2016,03,25,08,28,1.60
2016,03,25,08,29,1.60
2016,03,25,08,30,1.60
2016,03,25,08,31,1.70
2016,03,25,08,32,1.70
2016,03,25,08,33,1.70
2016,03,25,08,34,1.70
2016,03,25,08,35,1.70
2016,03,25,08,36,1.70
2016,03,25,08,37,1.70
2016,03,25,08,38,1.80
2016,03,25,08,39,1.80
2016,03,25,08,40,1.80
2016,03,25,08,41,1.80
2016,03,25,08,42,1.80
2016,03,25,08,43,1.80
2016,03,25,08,44,1.80
2016,03,25,08,45,1.80
2016,03,25,08,46,1.80
2016,03,25,08,47,1.90
2016,03,25,08,48,1.90
2016,03,25,08,49,1.90
2016,03,25,08,50,1.90
2016,03,25,08,51,1.90
2016,03,25,08,52,1.90
2016,03,25,08,53,1.90
2016,03,25,08,54,1.90
2016,03,25,08,55,2.00
2016,03,25,08,56,2.00
2016,03,25,08,57,2.00
2016,03,25,08,58,2.00
2016,03,25,08,59,2.00
2016,03,25,09,00,2.00
2016,03,25,09,01,2.00
2016,03,25,09,02,2.00
2016,03,25,09,03,2.10
2016,03,25,09,04,2.10
2016,03,25,09,05,2.10
2016,03,25,09,06,2.10
2016,03,25,09,07,2.10
2016,03,25,09,08,2.10
2016,03,25,09,09,2.20
2016,03,25,09,10,2.20
2016,03,25,09,11,2.20
2016,03,25,09,12,2.20
2016,03,25,09,13,2.20
2016,03,25,09,14,2.20
2016,03,25,09,15,2.20
2016,03,25,09,16,2.20
2016,03,25,09,17,2.30
2016,03,25,09,18,2.30
2016,03,25,09,19,2.30
2016,03,25,09,20,2.30
2016,03,25,09,21,2.40
2016,03,25,09,22,2.40
2016,03,25,09,23,2.40
2016,03,25,09,24,2.40
2016,03,25,09,25,2.50
2016,03,25,09,26,2.50
2016,03,25,09,27,2.50
2016,03,25,09,28,2.60
2016,03,25,09,29,2.60
2016,03,25,09,30,2.60
2016,03,25,09,31,2.60
2016,03,25,09,32,2.70
2016,03,25,09,33,2.70
2016,03,25,09,34,2.70
2016,03,25,09,35,2.70
2016,03,25,09,36,2.70
2016,03,25,09,37,2.80
2016,03,25,09,38,2.80
2016,03,25,09,39,2.80
2016,03,25,09,40,2.90
2016,03,25,09,41,2.90
2016,03,25,09,42,2.90
2016,03,25,09,43,3.00
2016,03,25,09,44,3.00
2016,03,25,09,45,3.00
2016,03,25,09,46,3.10
2016,03,25,09,47,3.10
2016,03,25,09,48,3.20
2016,03,25,09,49,3.20
2016,03,25,09,50,3.20
2016,03,25,09,51,3.30
2016,03,25,09,52,3.30
2016,03,25,09,53,3.30
2016,03,25,09,54,3.40
2016,03,25,09,55,3.40
2016,03,25,09,56,3.40
2016,03,25,09,57,3.50
2016,03,25,09,58,3.50
2016,03,25,09,59,3.60
2016,03,25,10,00,3.60
2016,03,25,10,01,3.70
2016,03,25,10,02,3.70
2016,03,25,10,03,3.70
2016,03,25,10,04,3.70
2016,03,25,10,05,3.80
2016,03,25,10,06,3.80
2016,03,25,10,07,3.80
2016,03,25,10,08,3.90
2016,03,25,10,09,3.90
2016,03,25,10,10,4.00
2016,03,25,10,11,4.00
2016,03,25,10,12,4.10
2016,03,25,10,13,4.10
2016,03,25,10,14,4.20
2016,03,25,10,15,4.20
2016,03,25,10,16,4.20
2016,03,25,10,17,4.30
2016,03,25,10,18,4.30
2016,03,25,10,19,4.30
2016,03,25,10,20,4.40
2016,03,25,10,21,4.40
2016,03,25,10,22,4.50
2016,03,25,10,23,4.60
2016,03,25,10,24,4.60
2016,03,25,10,25,4.70
2016,03,25,10,26,4.70
2016,03,25,10,27,4.80
2016,03,25,10,28,4.80
2016,03,25,10,29,4.90
2016,03,25,10,30,4.90
2016,03,25,10,31,5.00
2016,03,25,10,32,5.10
2016,03,25,10,33,5.10
2016,03,25,10,34,5.20
2016,03,25,10,35,5.30
2016,03,25,10,36,5.30
2016,03,25,10,37,5.40
2016,03,25,10,38,5.40
2016,03,25,10,39,5.50
2016,03,25,10,40,5.50
2016,03,25,10,41,5.60
2016,03,25,10,42,5.60
2016,03,25,10,43,5.70
2016,03,25,10,44,5.70
2016,03,25,10,45,5.80
2016,03,25,10,46,5.80
2016,03,25,10,47,5.80
2016,03,25,10,48,5.90
2016,03,25,10,49,5.90
2016,03,25,10,50,5.90
2016,03,25,10,51,5.90
2016,03,25,10,52,6.00
2016,03,25,10,53,6.00
2016,03,25,10,54,6.00
2016,03,25,10,55,6.10
2016,03,25,10,56,6.10
2016,03,25,10,57,6.20
2016,03,25,10,58,6.20
2016,03,25,10,59,6.20
2016,03,25,11,00,6.30
2016,03,25,11,01,6.30
2016,03,25,11,02,6.30
2016,03,25,11,03,6.30
2016,03,25,11,04,6.30
2016,03,25,11,05,6.40
2016,03,25,11,06,6.40
2016,03,25,11,07,6.40
2016,03,25,11,08,6.40
2016,03,25,11,09,6.40
2016,03,25,11,10,6.40
2016,03,25,11,11,6.50
2016,03,25,11,12,6.50
2016,03,25,11,13,6.50
2016,03,25,11,14,6.50
2016,03,25,11,15,6.50
2016,03,25,11,16,6.60
2016,03,25,11,17,6.60
2016,03,25,11,18,6.60
2016,03,25,11,19,6.60
2016,03,25,11,20,6.60
2016,03,25,11,21,6.60
2016,03,25,11,22,6.60
2016,03,25,11,23,6.60
2016,03,25,11,24,6.70
2016,03,25,11,25,6.70
2016,03,25,11,26,6.70
2016,03,25,11,27,6.80
2016,03,25,11,28,6.80
2016,03,25,11,29,6.80
2016,03,25,11,30,6.80
2016,03,25,11,31,6.90
2016,03,25,11,32,6.90
2016,03,25,11,33,7.00
2016,03,25,11,34,7.00
2016,03,25,11,35,7.10
2016,03,25,11,36,7.10
2016,03,25,11,37,7.20
2016,03,25,11,38,7.20
2016,03,25,11,39,7.20
2016,03,25,11,40,7.30
2016,03,25,11,41,7.30
2016,03,25,11,42,7.40
2016,03,25,11,43,7.50
2016,03,25,11,44,7.50
2016,03,25,11,45,7.60
2016,03,25,11,46,7.60
2016,03,25,11,47,7.60
2016,03,25,11,48,7.70
2016,03,25,11,49,7.70
2016,03,25,11,50,7.70
2016,03,25,11,51,7.70
2016,03,25,11,52,7.80
2016,03,25,11,53,7.80
2016,03,25,11,54,7.80
2016,03,25,11,55,7.90
2016,03,25,11,56,7.90
2016,03,25,11,57,7.90
2016,03,25,11,58,7.90
2016,03,25,11,59,8.00
2016,03,25,12,00,8.00
2016,03,25,12,01,8.00
2016,03,25,12,02,8.00
2016,03,25,12,03,8.00
2016,03,25,12,04,8.00
2016,03,25,12,05,8.10
2016,03,25,12,06,8.10
2016,03,25,12,07,8.10
2016,03,25,12,08,8.10
2016,03,25,12,09,8.10
2016,03,25,12,10,8.00
2016,03,25,12,11,8.00
2016,03,25,12,12,8.00
2016,03,25,12,13,8.00
2016,03,25,12,14,8.00
2016,03,25,12,15,8.00
2016,03,25,12,16,8.00
2016,03,25,12,17,8.00
2016,03,25,12,18,8.00
2016,03,25,12,19,8.00
2016,03,25,12,20,8.00
2016,03,25,12,21,8.00
2016,03,25,12,22,8.00
2016,03,25,12,23,8.00
2016,03,25,12,24,8.00
2016,03,25,12,25,7.90
2016,03,25,12,26,7.90
2016,03,25,12,27,7.90
2016,03,25,12,28,7.90
2016,03,25,12,29,7.90
2016,03,25,12,30,7.90
2016,03,25,12,31,7.90
2016,03,25,12,32,7.90
2016,03,25,12,33,7.90
2016,03,25,12,34,7.90
2016,03,25,12,35,7.90
2016,03,25,12,36,7.90
2016,03,25,12,37,7.90
2016,03,25,12,38,7.90
2016,03,25,12,39,8.00
2016,03,25,12,40,8.00
2016,03,25,12,41,8.00
2016,03,25,12,42,8.00
2016,03,25,12,43,8.00
2016,03,25,12,44,8.10
2016,03,25,12,45,8.10
2016,03,25,12,46,8.10
2016,03,25,12,47,8.10
2016,03,25,12,48,8.10
2016,03,25,12,49,8.10
2016,03,25,12,50,8.20
2016,03,25,12,51,8.20
2016,03,25,12,52,8.20
2016,03,25,12,53,8.30
2016,03,25,12,54,8.30
2016,03,25,12,55,8.30
2016,03,25,12,56,8.30
2016,03,25,12,57,8.40
2016,03,25,12,58,8.40
2016,03,25,12,59,8.40
2016,03,25,13,00,8.50
2016,03,25,13,01,8.50
2016,03,25,13,02,8.50
2016,03,25,13,03,8.60
2016,03,25,13,04,8.60
2016,03,25,13,05,8.60
2016,03,25,13,06,8.70
2016,03,25,13,07,8.70
2016,03,25,13,08,8.70
2016,03,25,13,09,8.70
2016,03,25,13,10,8.80
2016,03,25,13,11,8.80
2016,03,25,13,12,8.80
2016,03,25,13,13,8.90
2016,03,25,13,14,8.90
2016,03,25,13,15,8.90
2016,03,25,13,16,9.00
2016,03,25,13,17,9.00
2016,03,25,13,18,9.10
2016,03,25,13,19,9.10
2016,03,25,13,20,9.10
2016,03,25,13,21,9.20
2016,03,25,13,22,9.20
2016,03,25,13,23,9.20
2016,03,25,13,24,9.20
2016,03,25,13,25,9.20
2016,03,25,13,26,9.20
2016,03,25,13,27,9.30
2016,03,25,13,28,9.30
2016,03,25,13,29,9.30
2016,03,25,13,30,9.30
2016,03,25,13,31,9.30
2016,03,25,13,32,9.30
2016,03,25,13,33,9.30
2016,03,25,13,34,9.30
2016,03,25,13,35,9.30
2016,03,25,13,36,9.30
2016,03,25,13,37,9.30
2016,03,25,13,38,9.30
2016,03,25,13,39,9.30
2016,03,25,13,40,9.30
2016,03,25,13,41,9.30
2016,03,25,13,42,9.30
2016,03,25,13,43,9.30
2016,03,25,13,44,9.30
2016,03,25,13,45,9.30
2016,03,25,13,46,9.30
2016,03,25,13,47,9.30
2016,03,25,13,48,9.30
2016,03,25,13,49,9.30
2016,03,25,13,50,9.30
2016,03,25,13,51,9.30
2016,03,25,13,52,9.30
2016,03,25,13,53,9.30
2016,03,25,13,54,9.30
2016,03,25,13,55,9.30
2016,03,25,13,56,9.30
2016,03,25,13,57,9.30
2016,03,25,13,58,9.30
2016,03,25,13,59,9.30
2016,03,25,14,00,9.30
2016,03,25,14,01,9.30
2016,03,25,14,02,9.30
2016,03,25,14,03,9.30
2016,03,25,14,04,9.30
2016,03,25,14,05,9.30
2016,03,25,14,06,9.30
2016,03,25,14,07,9.30
2016,03,25,14,08,9.30
2016,03,25,14,09,9.30
2016,03,25,14,10,9.30
2016,03,25,14,11,9.30
2016,03,25,14,12,9.30
2016,03,25,14,13,9.30
2016,03,25,14,14,9.30
2016,03,25,14,15,9.30
2016,03,25,14,16,9.30
2016,03,25,14,17,9.30
2016,03,25,14,18,9.30
2016,03,25,14,19,9.30
2016,03,25,14,20,9.30
2016,03,25,14,21,9.30
2016,03,25,14,22,9.30
2016,03,25,14,23,9.30
2016,03,25,14,24,9.40
2016,03,25,14,25,9.40
2016,03,25,14,26,9.40
2016,03,25,14,27,9.40
2016,03,25,14,28,9.40
2016,03,25,14,29,9.40
2016,03,25,14,30,9.50
2016,03,25,14,31,9.50
2016,03,25,14,32,9.50
2016,03,25,14,33,9.60
2016,03,25,14,34,9.60
2016,03,25,14,35,9.60
2016,03,25,14,36,9.60
2016,03,25,14,37,9.60
2016,03,25,14,38,9.60
2016,03,25,14,39,9.60
2016,03,25,14,40,9.60
2016,03,25,14,41,9.70
2016,03,25,14,42,9.70
2016,03,25,14,43,9.70
2016,03,25,14,44,9.70
2016,03,25,14,45,9.70
2016,03,25,14,46,9.80
2016,03,25,14,47,9.80
2016,03,25,14,48,9.80
2016,03,25,14,49,9.80
2016,03,25,14,50,9.80
2016,03,25,14,51,9.80
2016,03,25,14,52,9.80
2016,03,25,14,53,9.90
2016,03,25,14,54,9.90
2016,03,25,14,55,9.90
2016,03,25,14,56,9.90
2016,03,25,14,57,9.90
2016,03,25,14,58,9.90
2016,03,25,14,59,9.90
2016,03,25,15,00,9.90
2016,03,25,15,01,9.90
2016,03,25,15,02,9.90
2016,03,25,15,03,9.90
2016,03,25,15,04,9.90
2016,03,25,15,05,9.90
2016,03,25,15,06,9.90
2016,03,25,15,07,9.80
2016,03,25,15,08,9.80
2016,03,25,15,09,9.80
2016,03,25,15,10,9.80
2016,03,25,15,11,9.80
2016,03,25,15,12,9.70
2016,03,25,15,13,9.70
2016,03,25,15,14,9.70
2016,03,25,15,15,9.70
2016,03,25,15,16,9.60
2016,03,25,15,17,9.60
2016,03,25,15,18,9.60
2016,03,25,15,19,9.60
2016,03,25,15,20,9.60
2016,03,25,15,21,9.60
2016,03,25,15,22,9.60
2016,03,25,15,23,9.60
2016,03,25,15,24,9.50
2016,03,25,15,25,9.50
2016,03,25,15,26,9.50
2016,03,25,15,27,9.50
2016,03,25,15,28,9.50
2016,03,25,15,29,9.60
2016,03,25,15,30,9.60
2016,03,25,15,31,9.60
2016,03,25,15,32,9.60
2016,03,25,15,33,9.60
2016,03,25,15,34,9.60
2016,03,25,15,35,9.60
2016,03,25,15,36,9.60
2016,03,25,15,37,9.70
2016,03,25,15,38,9.70
2016,03,25,15,39,9.70
2016,03,25,15,40,9.70
2016,03,25,15,41,9.80
2016,03,25,15,42,9.80
2016,03,25,15,43,9.80
2016,03,25,15,44,9.90
2016,03,25,15,45,9.90
2016,03,25,15,46,9.90
2016,03,25,15,47,10.00
2016,03,25,15,48,10.00
2016,03,25,15,49,10.00
2016,03,25,15,50,10.00
2016,03,25,15,51,10.10
2016,03,25,15,52,10.10
2016,03,25,15,53,10.10
2016,03,25,15,54,10.10
2016,03,25,15,55,10.10
2016,03,25,15,56,10.10
2016,03,25,15,57,10.10
2016,03,25,15,58,10.10
2016,03,25,15,59,10.10
2016,03,25,16,00,10.10
2016,03,25,16,01,10.10
2016,03,25,16,02,10.10
2016,03,25,16,03,10.10
2016,03,25,16,04,10.10
2016,03,25,16,05,10.20
2016,03,25,16,06,10.20
2016,03,25,16,07,10.20
2016,03,25,16,08,10.20
2016,03,25,16,09,10.20
2016,03,25,16,10,10.20
2016,03,25,16,11,10.20
2016,03,25,16,12,10.20
2016,03,25,16,13,10.20
2016,03,25,16,14,10.20
2016,03,25,16,15,10.30
2016,03,25,16,16,10.30
2016,03,25,16,17,10.30
2016,03,25,16,18,10.30
2016,03,25,16,19,10.40
2016,03,25,16,20,10.50
2016,03,25,16,21,10.50
2016,03,25,16,22,10.60
2016,03,25,16,23,10.60
2016,03,25,16,24,10.70
2016,03,25,16,25,10.70
2016,03,25,16,26,10.70
2016,03,25,16,27,10.70
2016,03,25,16,28,10.70
2016,03,25,16,29,10.70
2016,03,25,16,30,10.70
2016,03,25,16,31,10.70
2016,03,25,16,32,10.70
2016,03,25,16,33,10.60
2016,03,25,16,34,10.60
2016,03,25,16,35,10.60
2016,03,25,16,36,10.60
2016,03,25,16,37,10.60
2016,03,25,16,38,10.50
2016,03,25,16,39,10.50
2016,03,25,16,40,10.50
2016,03,25,16,41,10.40
2016,03,25,16,42,10.40
2016,03,25,16,43,10.40
2016,03,25,16,44,10.40
2016,03,25,16,45,10.40
2016,03,25,16,46,10.40
2016,03,25,16,47,10.30
2016,03,25,16,48,10.30
2016,03,25,16,49,10.30
2016,03,25,16,50,10.30
2016,03,25,16,51,10.30
2016,03,25,16,52,10.30
2016,03,25,16,53,10.30
2016,03,25,16,54,10.30
2016,03,25,16,55,10.30
2016,03,25,16,56,10.30
2016,03,25,16,57,10.30
2016,03,25,16,58,10.30
2016,03,25,16,59,10.30
2016,03,25,17,00,10.40
2016,03,25,17,01,10.40
2016,03,25,17,02,10.50
2016,03,25,17,03,10.60
2016,03,25,17,04,10.60
2016,03,25,17,05,10.50
2016,03,25,17,06,10.50
2016,03,25,17,07,10.40
2016,03,25,17,08,10.40
2016,03,25,17,09,10.40
2016,03,25,17,10,10.40
2016,03,25,17,11,10.40
2016,03,25,17,12,10.30
2016,03,25,17,13,10.30
2016,03,25,17,14,10.30
2016,03,25,17,15,10.30
2016,03,25,17,16,10.30
2016,03,25,17,17,10.30
2016,03,25,17,18,10.30
2016,03,25,17,19,10.30
2016,03,25,17,20,10.20
2016,03,25,17,21,10.20
2016,03,25,17,22,10.20
2016,03,25,17,23,10.10
2016,03,25,17,24,10.10
2016,03,25,17,25,10.10
2016,03,25,17,26,10.00
2016,03,25,17,27,10.00
2016,03,25,17,28,9.90
2016,03,25,17,29,9.90
2016,03,25,17,30,9.80
2016,03,25,17,31,9.80
2016,03,25,17,32,9.80
2016,03,25,17,33,9.70
2016,03,25,17,34,9.70
2016,03,25,17,35,9.70
2016,03,25,17,36,9.60
2016,03,25,17,37,9.60
2016,03,25,17,38,9.60
2016,03,25,17,39,9.60
2016,03,25,17,40,9.60
2016,03,25,17,41,9.60
2016,03,25,17,42,9.60
2016,03,25,17,43,9.60
2016,03,25,17,44,9.60
2016,03,25,17,45,9.60
2016,03,25,17,46,9.50
2016,03,25,17,47,9.50
2016,03,25,17,48,9.50
2016,03,25,17,49,9.50
2016,03,25,17,50,9.50
2016,03,25,17,51,9.50
2016,03,25,17,52,9.50
2016,03,25,17,53,9.50
2016,03,25,17,54,9.60
2016,03,25,17,55,9.60
2016,03,25,17,56,9.60
2016,03,25,17,57,9.60
2016,03,25,17,58,9.60
2016,03,25,17,59,9.60
2016,03,25,18,00,9.50
2016,03,25,18,01,9.50
2016,03,25,18,02,9.50